Theta_e
317 315 314 315 316 313 311 309 310 310 312 312 311 311 311 311 311 311 312 313 313 316 319 323 323 326 322 315 319 318 319 319 313 314 315 321 324 324 324 323 325 317 322 323 322 326 327 326 328 329 324 326 328 337
315 314 313 314 314 312 311 309 310 311 312 312 312 311 311 311 311 311 311 312 313 312 316 323 324 324 322 321 317 313 317 318 316 317 317 319 321 321 318 319 320 321 320 322 321 322 319 324 325 324 323 330 334 334
314 313 313 314 314 311 309 309 309 311 312 312 313 311 310 311 311 311 311 312 313 316 319 318 319 319 322 321 320 317 317 317 316 312 317 318 321 316 320 320 324 323 317 322 320 320 324 326 326 323 324 331 332 328
312 312 312 313 313 310 308 309 308 312 313 313 313 312 311 311 311 311 311 312 312 312 321 321 324 324 321 318 319 320 317 315 312 310 311 311 313 313 317 320 321 320 318 321 322 324 324 325 325 323 329 331 331 329
311 312 311 311 310 308 308 308 308 312 313 313 313 311 311 310 311 311 311 312 312 313 323 320 321 323 319 318 319 319 317 314 313 312 313 314 312 318 314 315 315 318 318 321 324 320 321 323 323 322 331 332 331 331
312 312 311 311 310 307 308 308 310 312 312 312 312 312 312 311 311 311 308 313 312 311 317 324 320 321 322 319 319 316 315 313 313 315 316 317 317 315 317 318 318 318 318 314 322 319 321 322 321 320 324 330 330 329
310 311 311 311 308 307 309 307 311 311 309 312 311 312 311 311 311 309 310 311 311 311 318 325 323 318 321 317 315 315 315 313 314 315 317 318 316 312 313 317 319 320 323 323 322 322 325 323 322 318 325 330 330 329
309 310 310 309 307 307 308 308 311 309 308 310 311 311 311 311 311 312 313 313 312 311 318 324 323 320 318 316 318 313 316 315 315 314 316 318 318 313 315 313 314 318 321 320 320 320 321 319 319 318 322 329 328 327
308 310 310 309 306 308 307 308 310 308 308 307 309 311 310 309 306 310 311 315 314 316 320 320 323 324 318 316 315 317 314 319 315 318 317 319 314 317 318 316 319 319 319 319 317 317 318 319 317 316 323 327 325 325
309 310 310 307 307 307 307 308 310 308 308 307 306 307 309 311 315 317 318 316 316 315 318 323 319 322 319 317 320 321 317 319 322 320 316 321 319 317 316 314 317 316 316 315 316 317 315 317 318 317 314 317 321 322
309 309 309 305 307 307 307 308 309 308 307 309 310 313 317 319 317 314 317 317 316 318 317 321 319 321 318 323 320 319 321 321 322 320 323 319 320 318 317 315 314 313 313 314 315 315 312 311 311 311 312 312 313 322
309 309 307 305 306 306 308 308 309 308 311 308 308 313 317 317 318 321 320 318 316 316 314 318 319 319 321 321 323 321 325 322 322 317 320 321 317 315 317 318 315 312 314 313 314 313 312 312 313 313 313 314 316 321
309 308 305 305 307 306 306 309 309 308 308 312 315 319 318 316 317 323 322 320 317 316 313 315 322 321 320 321 325 325 328 325 317 322 323 319 315 317 318 316 315 314 313 314 313 314 314 314 314 314 314 315 316 320
309 307 305 304 306 306 308 309 309 309 310 316 319 316 321 321 318 318 319 318 316 316 315 311 317 321 320 323 323 328 326 319 322 322 321 316 316 316 317 316 315 314 313 313 313 313 313 314 314 315 316 318 319 320
307 306 305 304 305 308 309 309 309 309 313 317 318 320 320 317 316 316 316 316 318 319 316 313 315 321 321 325 324 325 326 325 321 320 316 315 313 317 317 314 314 313 312 312 313 312 313 314 315 317 318 319 320 321
306 305 306 306 307 309 309 308 308 311 313 316 317 319 318 316 317 318 319 320 319 321 318 316 317 321 323 321 323 324 325 324 320 316 314 314 315 316 316 314 313 313 313 313 314 313 314 314 313 316 318 318 319 320
306 307 309 309 308 308 308 307 308 311 315 316 316 314 313 314 316 316 318 319 319 323 323 324 326 323 320 323 322 321 321 317 316 314 316 317 316 315 314 314 312 313 312 313 314 314 314 315 315 315 314 316 317 318
308 309 309 308 309 308 307 308 312 313 316 314 312 312 312 312 314 317 318 318 320 323 324 325 323 326 327 327 323 318 316 314 317 317 317 317 315 313 316 315 315 315 314 314 315 315 314 313 313 315 317 317 315 315
309 309 309 309 309 310 311 311 311 314 316 313 310 309 315 314 315 319 320 320 320 322 323 323 325 326 325 321 323 321 318 322 323 321 320 319 317 316 316 317 317 318 318 317 315 314 314 314 314 315 316 316 314 314
308 308 308 309 309 310 313 313 311 313 315 314 312 316 316 316 316 317 319 319 322 323 325 325 326 324 324 322 320 321 320 319 323 325 324 322 323 322 321 320 320 321 322 322 320 317 315 313 314 314 315 315 314 313
305 306 308 308 309 309 311 313 315 315 312 313 314 316 316 313 316 322 323 322 324 324 324 323 324 321 321 319 320 322 318 320 323 322 323 324 323 326 326 327 326 324 321 319 316 316 315 315 315 313 314 314 315 315
307 307 308 307 309 312 313 311 313 315 316 319 317 315 318 319 319 322 321 323 324 324 322 320 317 318 321 324 323 323 322 321 318 319 321 322 321 321 321 323 323 321 320 319 318 317 317 317 316 315 315 315 316 316
308 309 310 309 312 311 312 313 317 317 319 321 321 320 319 319 317 319 321 321 322 320 319 317 318 320 320 322 323 322 323 322 316 314 316 318 321 321 321 321 322 318 315 318 319 319 318 317 317 317 316 315 315 315
308 311 313 314 312 315 315 318 316 317 318 321 321 322 320 318 318 321 322 319 318 319 319 318 318 321 322 323 323 322 323 323 319 320 321 320 316 318 319 319 319 320 320 319 319 318 318 318 318 317 317 316 316 316
311 310 312 310 315 317 319 319 319 319 320 323 322 320 321 318 320 322 324 322 320 319 320 320 319 320 322 323 322 323 324 324 321 320 322 321 318 317 317 318 317 318 318 318 317 317 316 316 317 316 316 315 315 315
313 311 310 316 316 317 320 323 323 322 320 321 322 320 319 322 323 324 322 319 319 319 319 322 323 322 322 320 319 318 322 324 323 320 322 322 320 318 315 315 315 317 318 317 317 315 315 314 315 315 315 315 314 314
311 312 312 311 315 318 321 321 321 322 322 323 321 321 320 323 323 320 318 316 316 316 318 320 323 321 320 320 321 321 325 323 323 322 322 321 320 320 320 317 316 317 319 317 317 314 314 314 315 315 314 313 312 311
312 312 316 316 317 319 320 322 323 323 323 320 321 323 324 325 323 320 319 318 318 322 322 323 324 324 322 320 320 322 321 321 321 320 319 318 317 317 317 317 318 318 319 318 317 316 316 315 315 315 315 315 313 312
311 312 314 317 317 317 319 321 323 321 319 321 324 324 321 316 316 317 317 321 323 321 322 322 323 323 319 318 317 317 317 317 317 316 316 313 311 316 317 317 317 316 318 319 318 317 316 315 315 315 315 314 314 313
313 313 318 319 319 318 316 320 321 317 315 317 318 317 316 315 316 319 321 321 321 320 321 320 322 321 317 316 316 317 318 318 317 317 315 314 315 317 317 317 317 317 316 317 317 316 316 315 315 314 314 313 313 313
311 314 316 316 315 316 319 317 316 318 321 321 318 318 319 318 319 322 320 320 323 322 320 317 318 318 317 316 316 311 310 312 312 314 315 315 315 316 315 315 314 315 314 314 315 315 315 315 314 313 312 313 313 313
313 314 315 316 317 319 318 321 321 321 321 322 320 321 320 319 321 317 322 320 321 320 321 320 318 316 318 318 317 314 312 311 310 311 311 312 313 313 312 312 312 312 312 313 313 313 314 314 312 313 313 313 312 310
314 313 314 317 321 321 322 323 324 323 322 321 323 322 320 320 323 318 317 315 316 316 315 317 319 318 316 313 311 309 309 309 309 309 309 310 310 311 311 311 310 310 310 310 309 310 311 311 311 312 313 313 313 312
Wind_Speed
14 15 13 13 13 13 13 14 15 16 12 15 17 14 11 10 7 9 10 6 6 2 6 4 4 2 4 1 4 4 4 3 3 3 3 3 2 4 1 3 3 4 4 1 2 3 2 3 3 5 6 2 2 2
13 13 13 13 13 14 14 15 15 15 13 16 16 14 10 9 8 7 6 3 3 4 5 11 22 24 19 18 4 2 4 3 5 4 1 3 2 1 3 2 2 0 5 4 5 5 4 3 3 1 3 3 1 3
13 13 13 13 13 13 14 15 16 15 16 16 15 13 11 9 8 9 8 10 3 2 5 3 8 4 7 20 22 4 1 5 2 3 4 2 2 4 4 5 3 1 3 4 3 3 4 4 3 3 5 4 4 5
13 13 13 13 13 13 15 15 16 16 16 16 15 11 12 11 10 10 9 5 4 2 2 6 7 7 5 9 10 8 10 5 6 3 3 3 2 3 4 3 4 4 5 5 1 4 2 4 2 6 4 5 6 5
13 13 14 13 13 13 14 15 17 15 16 16 14 11 10 10 9 11 15 20 14 1 2 4 17 4 2 14 16 15 13 4 2 2 2 3 2 3 1 2 1 4 6 5 5 9 7 6 6 7 7 6 6 6
13 13 13 14 13 13 14 15 15 14 16 14 12 9 8 7 7 5 3 8 20 9 0 3 5 4 4 14 19 10 6 4 3 4 3 2 1 3 3 2 5 4 4 6 5 7 5 5 5 5 7 7 5 7
13 13 13 13 12 13 13 14 14 13 14 11 8 6 6 8 10 7 3 2 17 14 2 4 4 3 2 4 3 3 4 2 3 2 1 3 1 4 3 4 6 5 5 4 4 9 3 4 6 7 8 11 12 7
12 12 13 11 11 12 12 13 12 11 11 9 6 5 5 6 8 10 7 18 11 3 1 2 4 4 3 1 2 2 2 3 3 3 1 2 2 2 1 7 5 4 3 3 8 3 6 4 3 5 7 11 6 6
12 12 12 10 10 11 11 12 10 10 8 7 4 2 3 5 4 3 4 12 22 3 2 2 3 4 3 1 2 3 2 1 2 1 2 4 1 3 7 7 7 8 9 9 5 6 7 7 7 8 7 7 7 6
11 10 10 10 9 9 10 10 9 9 7 5 3 1 2 5 4 6 1 2 1 2 1 3 1 2 3 0 2 3 2 3 2 4 3 3 4 5 6 9 11 9 9 8 6 4 3 4 6 6 8 8 7 8
10 10 10 9 8 8 8 9 7 8 1 2 2 2 5 2 4 1 2 2 2 2 3 4 5 2 2 3 3 1 3 2 2 5 4 2 4 6 7 10 8 8 8 9 8 9 10 9 8 7 5 7 12 14
10 11 10 8 8 6 7 8 5 3 1 4 8 6 5 2 2 2 3 1 3 6 3 5 6 4 0 2 4 2 1 1 4 2 3 3 5 6 4 7 8 8 8 8 10 9 12 12 13 10 8 10 13 19
11 10 9 8 7 7 7 7 5 5 5 3 2 1 2 1 1 5 5 3 2 3 3 3 2 4 2 4 3 3 2 3 1 2 4 5 4 4 5 5 6 8 11 9 7 16 18 15 15 13 9 9 13 15
11 10 8 7 8 8 9 5 4 3 1 2 2 2 3 3 4 4 3 1 3 1 3 3 3 3 2 3 3 3 3 2 2 2 5 4 7 7 6 5 7 9 9 9 9 14 14 16 15 14 14 15 16 14
9 8 8 10 8 5 4 4 4 4 1 2 2 4 6 4 3 2 2 2 3 3 1 2 3 3 2 4 4 4 3 4 5 5 4 5 7 6 8 7 8 8 8 7 11 11 15 18 17 14 15 18 18 16
7 6 11 8 5 5 4 3 3 2 2 2 4 3 3 1 3 2 2 2 1 3 0 2 3 4 4 5 5 8 6 7 4 4 4 2 4 7 8 7 9 10 13 11 15 18 18 19 18 18 18 19 19 20
7 4 3 4 6 6 6 3 2 2 3 3 3 3 2 2 4 3 1 2 1 2 1 1 2 7 0 4 5 4 6 4 4 4 3 5 7 9 8 7 8 12 11 14 16 21 24 26 21 18 14 24 24 23
6 2 6 5 8 6 4 3 2 3 5 4 3 3 3 3 3 3 3 3 3 3 3 2 0 2 3 3 3 4 5 3 3 4 4 4 5 6 12 10 15 18 16 18 22 23 21 21 18 16 24 29 27 25
5 6 7 8 6 3 2 3 3 3 5 3 3 3 3 3 5 2 2 3 5 3 1 1 4 3 3 2 2 4 4 4 4 4 2 2 7 11 16 15 12 11 14 16 18 18 23 28 27 26 26 27 22 27
3 6 7 5 4 1 2 2 4 3 3 3 3 3 3 3 3 5 9 4 4 2 3 3 3 3 4 2 2 2 3 4 2 3 1 2 2 4 6 10 12 15 14 13 15 17 17 18 24 26 27 30 23 22
5 5 6 5 2 4 2 2 3 3 3 3 2 4 3 3 4 4 3 3 3 3 3 4 4 3 3 4 5 3 3 4 5 4 4 3 2 5 5 9 12 11 8 8 7 12 17 17 22 23 20 18 20 17
4 9 4 6 3 3 3 6 3 3 2 3 3 3 3 3 4 4 5 3 3 4 4 4 3 4 4 1 2 4 12 16 14 1 6 4 2 1 2 5 2 4 8 9 10 9 11 10 11 15 17 18 23 24
4 8 3 5 4 3 5 4 4 3 3 2 3 2 2 3 3 5 3 4 4 4 6 5 6 14 7 14 17 15 6 8 4 10 3 2 1 3 5 5 4 4 3 2 5 11 13 15 17 18 24 25 24 22
5 3 3 4 5 3 3 3 3 3 3 2 2 3 2 2 3 1 3 2 2 3 5 2 2 4 2 7 2 8 14 10 10 10 6 9 3 3 5 8 10 7 3 8 7 5 4 7 7 8 11 13 15 14
1 3 3 4 3 3 4 4 4 2 1 2 2 3 3 2 1 1 1 2 3 3 2 8 5 4 3 4 5 12 14 11 8 4 3 6 10 8 8 7 5 4 5 8 8 8 8 10 13 14 10 9 7 7
4 4 6 3 3 3 3 2 2 1 2 4 5 2 3 2 3 2 2 1 1 2 1 4 5 4 2 3 3 3 6 8 9 5 4 9 11 9 4 3 1 1 4 6 15 15 14 13 11 12 12 12 17 20
2 4 4 4 3 2 2 1 2 2 2 2 1 2 1 1 1 2 2 1 2 2 2 1 5 7 4 6 6 5 8 9 7 6 9 9 4 3 5 5 4 3 9 10 14 19 18 18 16 11 6 3 1 3
3 3 3 1 2 4 3 2 2 2 2 2 0 1 1 0 2 2 2 2 1 6 5 3 6 16 15 10 10 13 12 12 13 11 8 4 1 1 2 2 2 3 6 9 10 14 18 17 17 18 14 11 8 7
3 3 2 4 4 4 6 5 6 4 3 3 1 2 2 2 1 1 3 2 3 8 6 10 11 13 13 12 11 12 13 12 8 4 2 1 2 4 5 6 5 3 6 9 13 13 11 13 9 8 8 8 9 12
4 4 3 3 3 2 2 2 2 1 2 2 2 1 2 2 0 6 4 8 8 2 0 6 13 15 13 13 10 8 5 3 4 6 4 4 7 9 8 7 7 8 8 9 10 10 10 11 8 8 9 9 11 12
1 3 2 3 3 1 2 3 3 3 2 2 2 2 1 3 4 3 8 8 8 5 2 5 8 10 13 11 9 5 1 2 2 4 14 17 12 9 9 9 10 10 11 11 12 13 14 14 13 11 13 13 12 12
3 5 4 2 1 1 2 3 3 3 3 2 2 2 3 3 3 3 1 4 12 11 13 13 12 8 11 9 9 6 5 5 5 7 9 8 6 6 8 12 14 14 13 13 14 14 15 17 16 14 13 13 11 10
2 3 2 2 2 4 2 4 2 2 3 3 3 2 1 1 1 3 5 4 9 12 12 15 17 17 18 18 16 14 12 11 9 6 5 5 8 8 9 9 7 5 5 5 8 12 16 16 14 15 16 16 15 13
Wind_Direction
267 270 272 277 289 293 300 311 315 320 323 330 321 312 302 297 283 290 275 252 205 271 280 260 303 308 337 140 151 219 65 3 46 74 126 202 156 220 107 211 168 171 130 170 91 68 265 167 99 159 213 280 269 55
260 266 269 279 283 291 301 308 312 313 312 321 324 315 301 281 273 275 279 103 114 223 257 290 285 271 242 236 161 22 162 157 173 94 142 122 142 120 167 238 37 229 178 175 161 213 252 283 237 90 172 121 45 84
263 267 271 276 282 291 301 304 310 311 307 312 317 317 296 274 262 246 269 285 253 257 288 317 248 305 286 235 228 121 257 165 156 164 154 159 136 137 161 237 174 230 157 113 91 237 235 218 141 183 201 126 102 100
267 268 274 277 280 291 299 305 312 311 308 310 308 305 294 273 253 248 242 234 275 266 257 279 341 306 286 178 147 125 132 98 97 76 107 136 157 166 202 187 157 194 133 143 271 288 305 285 186 167 189 128 107 108
266 268 275 278 280 290 300 308 312 312 312 310 301 296 284 268 250 251 256 249 233 289 263 281 313 260 221 157 131 131 118 100 93 69 87 218 174 124 23 77 274 183 172 152 210 206 175 206 194 158 157 168 168 135
262 266 275 278 280 290 301 308 311 313 313 308 303 291 265 252 236 252 296 228 209 193 228 320 300 315 7 148 128 117 118 102 102 136 201 230 249 105 106 189 259 237 218 187 211 180 192 170 170 155 174 168 176 160
260 264 271 274 280 292 302 307 310 315 318 311 303 288 252 225 221 206 228 74 162 181 181 306 314 282 287 118 53 69 49 96 113 136 176 151 115 81 107 183 239 237 207 188 149 116 87 155 197 174 153 172 175 146
260 260 268 271 283 294 304 305 308 317 321 327 305 274 241 233 252 268 264 173 171 243 186 240 270 346 11 65 87 30 79 31 16 150 71 136 44 57 237 240 255 250 197 137 169 203 172 166 158 156 150 138 145 165
252 256 262 268 284 294 302 306 305 315 320 330 322 280 231 224 217 262 203 200 210 257 248 167 182 221 358 52 108 43 88 53 311 149 230 105 8 205 222 195 197 203 180 199 206 155 138 159 176 160 154 152 154 184
255 259 264 269 280 295 300 309 301 312 312 294 260 202 270 220 297 143 194 90 166 252 216 222 191 239 104 45 30 103 51 182 161 246 104 144 243 252 229 208 200 188 197 153 138 153 132 161 183 185 179 188 190 187
252 260 262 264 277 293 302 311 303 324 292 228 234 234 311 307 166 50 181 154 196 229 204 228 181 164 296 124 167 76 177 138 126 258 144 258 273 242 215 205 200 195 181 188 181 183 182 169 174 168 166 178 197 192
247 252 247 259 267 289 308 308 301 307 271 302 286 296 309 2 53 175 203 232 182 212 215 178 210 166 152 102 92 357 156 62 218 147 103 265 255 249 196 202 187 184 183 180 188 173 175 174 174 167 168 190 194 202
243 242 241 255 268 281 291 290 289 285 294 292 259 291 22 207 65 201 196 235 212 222 198 167 159 132 60 51 59 76 95 222 57 108 221 225 253 272 207 163 162 187 182 162 161 162 161 162 166 163 170 186 186 188
240 235 243 263 272 274 282 251 267 250 264 245 170 302 216 227 245 201 183 227 264 253 299 164 122 140 145 83 142 119 229 51 280 231 231 235 227 225 197 169 143 187 184 173 171 174 170 165 175 180 187 190 188 188
231 234 252 260 268 251 209 224 226 199 259 233 153 231 215 250 281 246 260 318 289 291 327 72 57 112 131 118 189 129 181 218 207 223 226 232 223 181 176 185 183 176 178 185 183 176 180 175 168 178 190 190 191 182
225 250 258 246 216 197 194 177 170 176 244 242 230 249 240 301 280 263 259 258 338 291 241 74 135 143 211 176 155 201 179 194 220 218 228 209 200 194 186 184 190 187 188 190 188 186 186 181 177 183 185 188 188 180
203 225 189 193 180 168 168 150 161 218 248 222 240 251 240 275 250 252 239 255 289 338 314 94 194 214 169 187 208 172 179 203 214 240 235 211 210 193 182 184 188 190 194 198 200 195 198 197 186 172 175 193 193 194
212 226 187 177 160 149 177 195 241 232 242 219 213 224 201 223 229 238 232 232 171 181 163 220 12 278 241 215 197 206 215 242 222 237 244 209 201 178 179 190 200 199 202 205 209 208 201 188 182 192 191 193 195 198
214 201 168 160 165 172 189 215 207 263 241 226 236 239 220 232 222 225 304 286 256 180 40 134 233 209 223 200 259 317 309 231 195 219 238 225 211 186 191 204 208 204 211 215 207 205 206 202 201 199 196 190 192 198
161 164 184 184 169 208 234 213 208 251 258 237 208 190 194 223 189 197 228 221 169 181 197 221 224 222 182 219 242 288 279 268 228 94 8 339 156 187 209 206 218 229 229 234 234 223 206 204 211 210 198 195 191 194
199 217 197 187 198 229 275 259 232 241 257 248 245 170 218 175 201 192 187 153 170 225 216 217 198 197 209 226 272 353 307 3 267 160 177 196 196 197 242 251 256 246 223 225 208 218 202 214 220 214 208 201 191 202
210 175 143 184 239 224 244 232 236 267 251 262 298 202 223 194 204 194 143 167 210 223 191 170 194 182 228 218 18 347 345 352 323 7 113 112 74 1 315 340 291 232 227 233 210 187 180 188 191 178 169 178 194 208
177 170 189 172 227 208 262 196 227 226 231 295 287 247 238 229 213 137 181 199 225 206 196 188 173 165 158 159 215 271 297 320 299 287 273 154 29 3 340 342 292 176 135 135 160 164 170 177 182 190 194 183 179 184
210 211 215 203 196 250 240 232 218 249 248 252 273 294 281 245 147 183 233 214 295 308 174 207 110 121 179 104 139 246 267 259 245 256 203 141 110 75 89 86 92 102 111 130 113 121 167 190 176 140 147 145 138 140
207 241 211 258 214 233 233 225 203 231 228 160 258 280 265 337 217 336 332 296 338 321 266 172 173 182 150 194 228 252 252 239 205 202 105 135 128 107 78 73 73 81 98 107 114 140 149 140 146 141 128 120 127 143
239 211 185 226 222 204 249 339 3 302 275 209 234 294 6 42 13 349 278 253 291 315 291 142 150 128 136 171 158 188 199 178 138 101 137 158 160 151 160 156 105 252 165 162 157 150 142 155 166 174 186 201 212 212
243 251 225 228 252 289 349 295 273 243 268 293 320 334 336 155 260 261 288 260 243 257 307 332 161 135 136 130 117 91 118 136 120 136 158 173 193 198 166 160 192 177 175 169 170 176 179 192 203 204 190 172 156 222
260 289 227 230 229 184 209 244 266 3 290 260 87 247 148 346 222 261 240 341 331 17 9 11 134 125 121 121 119 118 118 118 115 114 110 111 158 236 273 298 328 317 212 201 198 202 215 230 248 259 264 249 201 162
239 242 224 266 248 202 210 208 194 204 196 146 175 239 222 248 241 36 22 128 99 31 47 114 124 130 121 121 125 121 119 119 102 91 103 264 319 260 259 262 246 252 226 224 225 226 242 263 267 286 280 266 245 213
249 183 216 249 243 272 274 195 157 118 87 121 111 40 347 289 256 138 132 149 231 273 323 172 148 144 145 140 145 152 165 202 282 223 199 216 231 228 230 249 229 222 220 229 231 231 240 249 241 243 246 250 242 240
242 156 227 238 266 319 107 86 68 76 51 60 31 100 244 296 307 231 220 217 219 211 153 162 165 164 151 157 157 130 66 71 25 272 261 262 240 211 210 210 203 206 211 218 221 227 232 237 240 240 240 241 249 254
191 202 199 235 133 137 214 54 6 30 23 32 15 358 358 27 9 303 14 182 193 205 203 187 192 194 203 203 179 166 153 132 94 76 72 93 141 181 198 193 188 198 211 216 225 231 235 239 243 247 245 244 238 225
207 201 231 131 124 190 207 116 195 70 354 357 351 34 17 178 320 275 7 209 176 161 159 176 175 151 148 146 140 128 117 107 98 80 64 74 79 80 134 149 143 152 186 217 238 241 241 238 248 264 271 267 266 257